Find STARLINK-37664

NORAD ID: 70632 Constellation: starlink operational
LEOCIRCULARRETROGRADE

实时位置

正在加载3D地球...

关于 STARLINK-37664

正在加载描述...

即将过境

Passes for default location (London). Set your location on the main map for personalized predictions.

高度历史

Loading altitude history...

两行轨道根数

1 70632C 26101V 26126.33243056 .00315700 00000+0 49361-3 0 1264
2 70632 97.2845 339.8749 0010151 257.4435 108.7744 16.03760513 10
Epoch: May 6, 2026 • Age: 20 hours